RH
42 40 39 34 37 38 36 37 26 22 24 44 44 32 33 62 39 30 84 79 75 74 71 83 84 82 80 74 90 78 77 78 87 84 84 85 87 88 89 80 83 87 81 80 72 79 95 95 95
38 40 35 42 36 33 29 30 25 23 40 39 34 35 46 60 82 86 85 79 78 73 70 78 80 91 78 90 84 81 81 82 83 83 86 85 85 85 87 81 83 87 83 76 72 78 81 84 90
36 36 42 39 41 32 29 26 24 33 39 24 40 45 56 70 90 84 84 81 77 71 70 86 77 85 91 90 84 90 81 84 85 86 84 82 81 83 86 82 85 88 82 74 76 84 82 76 67
32 30 36 32 24 24 26 23 24 37 27 29 38 44 51 65 84 81 84 82 71 68 72 86 73 93 90 85 95 88 88 86 85 83 80 81 83 83 87 84 86 88 79 73 75 75 71 77 72
27 36 33 28 24 24 24 22 26 21 20 26 25 49 66 75 70 85 84 82 70 70 72 78 85 90 88 79 90 89 88 84 81 83 82 83 84 84 85 84 84 90 81 88 85 83 77 75 73
40 34 25 20 23 23 22 22 18 18 21 30 46 62 69 74 91 87 83 74 72 74 77 80 91 93 93 90 88 80 85 87 85 87 84 84 83 83 84 83 82 88 82 99 99 94 80 78 83
34 33 23 22 24 23 21 22 20 19 23 22 38 46 64 97 96 86 82 73 72 75 75 74 86 94 80 75 79 82 83 85 88 88 94 92 90 84 81 84 82 87 84 82 83 90 96 98 89
42 37 29 28 25 23 22 21 20 17 19 32 31 38 65 85 95 87 77 74 74 76 76 78 76 71 71 76 84 80 81 78 87 88 78 82 87 90 87 87 88 85 90 90 92 93 97 98 84
34 41 36 25 28 20 21 18 17 21 28 30 41 42 53 89 94 83 83 80 77 77 77 77 72 72 76 79 79 76 77 59 31 42 54 68 83 86 92 89 92 93 94 96 95 96 92 86 85
36 39 31 24 27 22 22 18 20 20 26 31 47 90 98 100 95 90 87 88 82 80 79 78 75 75 81 66 63 62 39 32 30 28 37 55 78 91 89 89 96 92 90 96 82 84 89 86 87
29 23 20 26 24 21 23 20 18 22 22 23 34 88 96 99 93 89 88 86 83 80 81 79 78 80 77 48 46 36 34 32 28 27 28 36 67 85 80 75 76 58 34 51 67 76 78 83 87
23 26 30 29 24 20 22 22 20 21 18 26 30 84 90 94 92 90 91 89 84 82 81 81 81 78 55 40 34 33 34 32 29 28 31 42 49 61 40 40 47 40 30 41 57 73 83 82 84
25 24 26 24 19 19 20 20 20 21 26 58 81 92 87 89 90 94 89 84 83 82 82 82 82 78 45 37 33 34 35 32 29 29 32 43 38 33 30 32 33 32 31 42 60 70 77 81 80
23 24 23 21 22 24 21 23 28 26 56 82 91 96 87 84 88 97 94 89 85 82 82 83 83 70 39 37 36 34 36 33 30 30 33 45 38 32 28 27 27 29 29 38 52 60 54 46 42
24 22 28 25 24 30 29 28 32 32 56 79 88 95 89 86 90 94 93 89 84 81 80 81 75 57 42 41 39 34 35 34 31 31 35 47 39 29 24 23 26 30 33 36 40 39 36 29 24
31 33 28 29 32 34 27 21 24 41 52 70 84 92 96 94 96 96 93 86 84 81 81 81 72 55 47 44 41 37 35 35 32 31 35 46 45 32 24 22 25 28 34 38 29 22 20 22 23
36 26 35 28 34 35 30 24 26 40 45 54 76 86 90 90 94 96 93 87 83 80 80 78 72 60 51 47 44 39 34 35 33 32 34 40 44 35 31 25 25 27 36 35 24 25 26 32 38
29 37 34 32 37 38 39 39 33 36 41 40 55 70 84 87 84 91 91 89 84 81 79 77 74 63 54 50 48 43 37 36 35 32 34 36 41 38 39 37 28 27 29 28 26 26 32 38 46
27 31 30 28 38 39 43 46 40 35 40 40 40 52 63 74 77 83 85 88 87 84 82 80 77 65 55 50 50 46 40 38 38 35 35 36 37 41 42 43 31 28 25 28 28 27 29 36 38
33 31 32 31 38 36 41 38 35 34 37 41 41 43 46 50 68 88 88 87 87 83 82 79 77 66 55 49 47 46 39 37 38 36 34 36 36 37 40 42 41 27 26 27 25 25 36 40 41
36 39 35 31 39 46 42 34 22 36 40 45 52 54 47 46 52 82 94 92 85 83 81 78 76 65 55 51 50 48 43 39 40 39 36 37 37 38 36 39 43 31 24 24 25 26 31 39 46
39 33 33 39 46 52 46 51 22 33 38 44 55 57 58 49 49 71 91 96 87 80 77 74 73 62 55 52 50 46 42 42 36 34 37 36 38 37 39 36 37 42 30 26 25 28 30 36 40
38 45 48 45 59 48 46 64 34 36 40 44 55 60 62 56 58 71 88 92 89 80 74 70 69 60 55 53 52 50 48 44 40 36 38 39 39 39 38 39 35 35 38 32 29 28 31 36 37
62 51 60 66 58 66 61 57 32 29 42 49 54 63 66 61 80 83 85 87 89 84 77 70 66 60 56 55 54 52 50 49 46 43 39 40 40 39 39 38 41 38 36 40 39 36 38 37 33
44 50 68 60 74 61 64 63 46 48 58 55 58 65 70 61 69 78 82 89 89 85 79 72 65 60 58 56 56 53 53 52 48 46 42 38 39 39 38 38 36 41 40 38 37 37 36 35 34
50 53 69 45 50 42 72 73 55 57 61 60 60 65 71 74 70 65 75 80 83 82 78 74 67 60 57 58 56 55 55 54 52 51 49 45 39 36 38 38 38 37 38 39 38 37 36 36 35
61 61 48 77 80 70 48 44 51 62 64 60 63 67 72 72 72 73 75 66 70 74 75 73 70 67 63 60 57 56 56 56 54 54 54 53 49 44 40 40 39 39 38 38 38 38 38 37 36
64 61 63 80 56 60 40 47 39 65 66 65 66 74 80 82 77 74 79 78 74 67 64 66 68 67 66 64 60 57 56 58 58 59 58 57 56 53 48 44 43 42 42 41 41 41 40 39 38
79 80 81 71 66 59 49 45 62 59 64 68 74 85 89 90 90 82 84 83 79 76 73 68 64 63 64 63 61 58 55 57 62 63 62 62 62 60 57 51 46 44 43 43 44 44 42 41 40
86 79 75 64 58 85 76 62 73 86 79 80 86 89 90 86 90 87 88 87 84 80 78 79 78 76 74 69 66 64 64 64 64 63 62 65 68 66 63 59 52 48 46 45 46 46 46 44 42
Wind_Speed
7 6 5 3 2 3 1 2 0 2 2 1 2 2 3 3 1 2 11 10 22 18 14 12 12 9 11 7 9 9 7 7 9 9 9 9 10 10 11 12 12 12 13 13 15 12 17 18 20
6 6 4 2 3 2 2 1 3 3 5 6 4 2 4 3 2 6 8 22 21 17 15 12 12 9 11 8 9 9 8 8 8 9 9 9 9 10 10 12 11 12 14 15 14 14 16 18 20
5 3 3 3 2 3 3 3 4 3 6 3 4 5 2 2 2 13 13 24 20 18 14 12 12 8 10 9 9 10 7 7 8 9 8 9 9 10 10 12 11 13 14 15 15 13 16 15 15
3 4 3 3 3 3 3 3 4 8 0 2 4 6 1 2 10 5 26 22 20 16 15 13 12 10 10 10 9 11 9 8 8 8 8 9 9 10 11 12 12 14 16 15 12 13 12 15 17
4 3 3 2 3 2 2 3 5 5 4 3 2 5 3 3 2 22 24 22 22 17 13 14 10 11 11 9 10 11 8 8 8 8 9 9 10 10 12 12 13 14 15 15 13 12 12 14 14
3 2 3 2 3 2 1 5 5 3 2 3 5 5 5 3 15 28 24 23 19 19 14 13 12 12 12 11 10 7 8 8 8 8 9 10 10 11 11 13 13 14 14 16 16 15 12 14 15
5 3 3 3 2 2 4 5 4 4 5 3 8 5 1 5 22 23 24 23 21 19 15 13 12 14 9 7 7 8 8 9 9 9 8 10 12 11 11 13 14 14 13 12 12 14 14 15 18
4 4 4 3 3 3 4 4 3 2 3 3 2 5 4 8 28 25 24 23 21 19 17 14 13 9 7 8 7 7 8 8 8 5 7 9 11 13 12 13 13 14 13 13 14 15 16 18 20
2 4 2 4 6 2 4 3 1 1 5 1 1 2 0 29 29 27 24 22 21 19 18 14 12 9 8 7 9 9 9 7 7 9 10 11 13 14 15 13 13 13 13 12 13 14 17 20 22
3 4 8 3 4 3 4 3 7 4 3 2 2 5 18 28 25 23 20 18 21 20 19 16 13 11 9 7 8 5 6 5 7 8 8 10 10 12 13 16 18 16 15 15 16 18 19 20 21
3 4 4 3 3 2 5 3 4 6 3 5 7 11 20 24 22 21 19 23 23 22 19 17 15 12 8 8 6 6 5 6 7 8 8 8 10 11 10 11 12 13 16 19 19 19 19 19 20
2 2 4 3 2 3 4 5 3 5 1 2 4 18 22 19 22 22 21 23 24 22 20 18 14 12 9 8 7 6 6 6 7 8 9 10 11 12 13 15 16 16 17 20 21 23 23 22 21
3 3 3 3 3 3 3 2 3 4 2 5 14 18 19 18 20 17 23 26 25 23 21 18 15 11 10 8 8 7 6 6 7 7 8 9 12 15 15 17 17 18 18 20 23 24 24 24 22
4 3 3 2 2 2 3 1 1 0 4 7 11 14 17 19 22 16 23 25 26 24 22 19 15 12 11 9 7 7 7 7 7 7 9 10 11 14 16 18 18 18 19 21 23 25 26 28 27
4 2 0 2 3 2 2 2 5 2 4 8 7 8 14 17 21 23 24 27 28 25 23 20 17 14 12 10 8 7 7 7 7 8 9 11 12 14 16 18 19 19 20 23 25 27 29 31 31
3 4 1 1 4 0 2 5 3 2 6 7 8 8 10 12 20 19 26 29 28 27 25 21 19 16 14 11 9 8 8 8 8 8 9 11 12 13 16 18 19 19 21 24 28 31 33 33 32
5 3 4 2 3 2 2 3 1 3 5 5 7 8 9 9 12 19 26 29 30 28 26 23 20 17 15 13 11 9 9 9 8 9 9 11 12 13 14 16 18 19 21 24 27 30 30 31 30
6 4 3 3 3 2 2 7 4 3 4 6 7 8 9 11 14 19 25 27 29 28 27 25 22 18 15 14 12 11 10 10 9 9 10 10 12 13 13 14 16 18 20 22 25 28 29 28 27
5 4 3 2 0 3 4 6 7 4 3 5 6 7 9 11 8 19 23 25 27 28 28 27 24 21 19 18 15 11 10 10 9 9 10 10 11 12 13 14 15 17 19 22 24 27 29 29 27
4 3 4 0 2 2 3 10 5 1 2 0 3 6 8 5 7 13 22 24 27 30 29 28 27 24 21 19 16 10 12 10 10 9 10 10 10 11 12 14 15 17 20 21 23 25 23 19 7
4 5 4 2 2 3 3 7 2 3 4 5 6 4 4 9 10 9 17 23 27 29 31 30 29 26 23 20 16 11 13 10 11 11 11 11 11 11 12 14 17 19 20 21 21 19 18 7 4
5 2 4 5 4 3 2 4 3 1 4 5 7 8 7 3 5 7 14 18 26 28 30 30 30 27 24 22 19 16 16 13 12 13 12 11 11 11 12 13 16 19 20 20 21 18 11 6 3
3 2 5 3 4 2 1 3 5 1 3 4 6 8 7 5 5 7 11 16 22 25 28 29 29 27 25 23 20 17 15 12 10 13 13 12 11 11 12 13 14 17 19 21 21 20 18 12 10
9 6 6 4 3 2 3 4 5 3 2 1 3 6 7 6 6 7 9 12 16 18 21 24 26 27 25 23 20 18 16 14 12 14 15 14 13 13 13 13 14 15 16 19 20 20 17 14 10
3 5 2 3 2 4 1 2 7 1 1 1 3 6 6 6 6 6 6 8 12 15 17 20 23 26 24 22 21 19 17 15 14 14 15 16 16 16 16 15 15 15 16 16 17 17 16 14 13
4 5 5 7 4 2 2 5 3 2 2 2 4 4 7 9 7 7 8 7 7 10 12 16 21 23 22 22 21 20 18 18 17 15 15 16 17 16 16 16 16 16 16 16 15 14 14 12 11
5 3 4 7 2 2 2 4 0 2 2 3 5 6 7 8 8 8 12 11 8 6 7 10 14 17 18 20 19 19 19 19 19 18 16 17 17 17 17 17 18 18 17 17 16 15 14 13 12
2 3 3 2 3 4 3 4 4 6 7 5 4 5 5 6 8 8 12 14 13 9 4 3 6 9 11 14 16 17 18 19 19 19 19 18 18 18 18 19 19 19 19 18 18 17 15 15 14
2 1 4 3 3 5 2 5 3 5 7 8 6 4 4 5 6 6 10 14 14 13 11 8 3 1 5 8 11 14 16 17 19 19 20 20 19 20 21 21 21 21 21 20 19 18 17 17 16
1 3 4 4 5 2 2 5 1 1 5 8 7 5 4 5 5 6 10 13 16 16 14 11 9 6 3 2 5 9 11 14 16 18 19 20 21 22 23 23 23 23 22 22 21 20 20 19 18
Wind_Direction
144 134 133 63 84 63 213 213 66 133 120 340 16 128 126 49 107 138 148 136 146 145 140 152 123 136 128 117 96 96 103 95 71 71 66 67 65 63 63 67 69 77 86 90 95 83 83 78 72
137 133 73 77 94 93 249 223 200 154 133 125 72 25 48 84 60 123 134 146 147 143 146 139 140 116 126 106 102 99 91 87 76 73 67 69 66 68 69 69 71 81 88 98 101 84 86 83 76
133 103 82 91 108 167 193 197 147 106 143 125 101 36 62 68 56 145 147 147 148 143 144 134 129 125 125 109 100 96 93 83 78 71 71 68 69 70 70 70 75 87 94 103 100 83 83 81 79
146 29 49 90 194 226 200 166 139 135 226 63 128 84 73 305 148 163 149 148 142 140 143 131 143 121 120 104 97 90 85 78 76 71 70 69 71 75 73 73 81 93 99 102 105 95 96 88 84
65 60 66 73 270 255 249 135 153 142 134 127 155 151 75 135 160 149 149 148 147 143 145 136 133 124 112 130 100 88 81 77 77 73 72 71 73 78 80 78 86 94 98 92 95 96 103 95 95
56 92 81 207 254 259 225 159 158 116 128 144 94 119 150 187 152 153 153 149 153 143 145 133 129 121 115 109 96 98 84 81 78 77 77 73 75 79 86 82 89 94 100 84 86 88 111 108 98
118 93 189 184 235 284 196 153 157 150 142 191 145 120 129 166 162 157 157 152 149 146 147 146 144 126 127 133 114 93 84 85 87 88 94 103 87 81 88 88 91 95 103 106 106 98 97 97 102
109 94 132 226 195 245 162 152 106 154 163 126 171 171 184 189 164 158 155 151 151 149 145 154 151 158 153 153 106 94 95 88 95 96 110 112 110 102 103 100 93 95 95 104 108 102 102 104 107
132 73 173 220 165 206 165 136 43 117 115 111 58 113 139 156 160 155 153 151 152 152 155 160 161 160 159 163 140 125 117 107 86 93 102 114 111 114 104 94 97 98 96 100 117 118 112 114 111
96 128 209 201 190 173 175 170 163 145 122 169 126 48 135 150 157 156 158 155 156 156 157 164 166 170 177 165 151 143 118 101 91 90 103 122 124 121 122 120 114 107 99 102 109 113 115 118 111
177 179 186 214 168 123 147 125 168 131 226 203 191 155 156 156 164 163 166 168 166 163 162 164 171 177 176 163 153 140 125 106 97 91 91 115 135 130 127 122 116 108 101 106 115 119 117 118 116
144 208 169 153 131 124 156 133 168 193 178 357 151 156 160 167 172 171 169 171 169 167 165 165 171 170 165 156 144 138 121 109 103 99 100 102 116 124 116 115 114 115 110 109 114 114 111 112 111
156 177 144 109 120 113 135 189 207 235 108 84 125 151 167 170 174 176 177 177 174 171 170 171 174 177 168 157 144 134 124 116 112 107 110 113 115 117 117 112 113 114 116 114 113 113 111 109 109
151 135 142 136 124 114 161 164 150 76 116 110 140 161 170 175 179 173 180 179 180 178 175 175 177 175 168 157 145 138 131 126 122 117 116 121 121 122 121 117 116 116 118 117 117 114 110 105 103
117 150 3 199 161 120 147 253 230 127 133 141 154 159 170 181 182 188 185 183 185 184 178 179 177 174 170 163 154 141 135 134 132 127 122 128 129 128 124 121 119 117 120 122 119 115 111 107 103
81 56 122 193 146 193 142 270 141 158 150 166 169 171 175 181 191 191 191 190 190 185 184 181 179 174 171 167 160 152 146 142 141 136 130 134 137 137 131 126 122 122 125 126 122 118 112 106 102
11 203 206 287 184 129 145 254 121 152 165 177 187 185 187 187 200 201 200 197 193 190 185 185 183 178 173 169 164 157 152 150 148 146 141 141 145 146 140 134 129 130 130 131 127 121 114 109 101
196 202 230 234 191 103 151 258 245 167 176 202 197 197 198 200 206 201 202 203 199 195 191 188 185 182 177 173 167 162 158 156 155 154 153 152 154 154 154 147 143 144 140 135 130 124 119 112 107
133 154 179 181 99 161 232 263 259 248 207 223 228 216 210 213 204 206 202 203 200 199 195 192 187 186 184 177 171 168 166 163 160 160 162 162 162 165 166 161 157 156 155 147 140 130 124 115 110
148 148 230 139 81 144 10 281 274 190 97 33 261 240 229 180 181 187 196 199 200 197 198 195 193 191 192 190 186 184 177 175 173 170 171 171 171 170 174 175 169 164 162 156 153 145 139 135 129
180 178 190 193 89 62 319 291 157 65 97 45 20 326 281 211 188 179 184 192 198 199 198 198 197 196 194 192 190 179 173 171 179 182 181 180 179 180 178 182 182 179 177 172 170 166 159 152 144
186 205 123 129 102 220 1 264 295 147 122 48 5 3 344 268 175 163 178 188 195 200 200 200 198 198 197 197 199 202 193 185 197 194 189 188 187 188 188 188 191 192 191 191 188 188 193 202 187
167 86 100 93 101 64 351 80 262 170 164 5 359 359 355 7 161 163 173 187 197 201 201 202 201 200 200 201 206 205 204 205 199 195 195 196 196 195 196 198 196 198 201 202 204 208 219 235 250
151 79 55 59 87 43 234 148 275 183 124 349 354 4 6 32 78 105 147 171 184 193 200 202 202 202 203 205 208 212 213 209 202 199 200 202 204 205 205 205 206 206 207 209 213 219 228 230 215
86 94 19 357 2 217 186 85 247 138 74 92 26 14 19 38 71 93 115 147 168 180 189 196 200 202 204 209 213 217 220 220 220 217 213 211 211 212 212 210 210 211 212 212 215 219 220 221 225
172 150 162 198 196 199 75 230 259 99 91 62 62 62 46 47 46 55 73 107 148 172 184 193 199 204 208 214 219 221 224 226 227 228 227 228 228 226 221 218 215 213 212 211 209 205 202 200 198
186 187 135 104 57 48 204 278 271 131 110 95 80 67 54 48 44 46 55 69 93 141 175 193 202 211 216 221 224 226 229 230 231 233 235 236 235 231 226 223 220 216 214 212 209 205 202 195 192
136 155 92 3 141 231 277 279 225 196 187 156 114 93 72 57 49 43 45 53 64 71 95 169 207 220 224 230 233 237 239 239 238 239 242 242 239 234 230 226 222 218 215 212 208 204 201 197 192
113 9 47 109 112 167 169 258 194 194 174 163 153 125 92 66 53 46 47 56 64 68 66 69 76 231 242 243 244 244 245 244 241 242 248 248 244 238 233 230 226 221 217 212 209 206 202 198 195
51 194 161 134 228 79 145 268 1 266 165 151 155 129 90 70 56 51 54 59 57 56 54 52 51 49 26 298 263 258 255 247 243 246 250 249 245 239 236 231 226 223 219 215 211 208 204 200 196